www.pogodaiklimat.ru

ПОГОДА в Ролла / Виши, MO

  • Прогноз погоды в Ролла / Виши
  • Монитор погоды в Ролла / Виши
  • Климат в Ролла / Виши

АРХИВ ПОГОДЫ в Ролла / Виши

Время (UTC), дата Ветер
(напр.,м/с)
 
Видим.   Явления Облачность Т
(С)
Тd
(С)
f
(%)
Тe
(С)
Тes
(С)
Комфортность

P
(гПа)

Po
(гПа)
Тmin
(С)
Tmax
(С)
R
(мм)
SD
(см)
14:53 21.08 З  16 км    5/5 600 м  +27.8  +22.2  72  +36  +39  очень
душно 
1017.1  976.6         
15:53 21.08 СЗ  3
{8} 
16 км    ясно  +28.9  +21.7  65  +37  +47  очень
душно 
1017.5  976.9         
16:53 21.08 нст  16 км    ясно  +30.0  +21.7  61  +38  +52  опасность
солнечного
удара 
1017.3  976.9  +20.0  +30.0     
17:53 21.08 СВ  16 км    ясно  +31.1  +21.7  57  +39  +55  опасность
солнечного
удара 
1016.8  976.3         
18:53 21.08   16 км    ясно  +30.6  +21.7  59  +39  +62  опасность
солнечного
удара 
1015.7  975.3         
19:53 21.08 ЮВ  16 км    ясно  +30.6  +22.2  61  +40  +53  опасность
солнечного
удара 
1014.5  974.3         
20:53 21.08 Ю  16 км    2/2 1020 м  +31.1  +22.8  61  +41  +48  опасность
перегрева 
1014.4  974.0         
21:53 21.08 ЮВ  16 км    2/2 1050 м
[средняя] 
+30.0  +22.2  63  +39  +44  очень
душно 
1014.5  974.0         
22:53 21.08 ЮВ  16 км    ясно  +30.0  +23.3  67  +40  +43  очень
душно 
1013.7  973.4  +29.4  +31.7     
23:53 21.08 СВ  16 км    5/0 2700 м
[средняя] 
+27.8  +23.3  77  +38  +38  очень
душно 
1014.3  974.0         
00:23 22.08 В  16 км  гроза  8/0 2700 м
[средняя] 
+26.7  +23.3  82  +36  +36  очень
душно 
           
00:41 22.08 Ю  8
{13} 
16 км  гроза  8/2 660 м
[средняя] 
+26.1  +21.7  77  +34  +34  очень
душно 
           
00:50 22.08 Ю  11
{17} 
16 км  гроза  8/8 720 м  +25.0  +19.0  69  +30  +30  душно             
00:53 22.08 Ю  12
{17} 
16 км  гроза со слабым дождем  8/8 720 м  +23.9  +19.4  76  +29  +29  душно  1015.6           
01:25 22.08 ЮЗ  16 км  гроза, слабый дождь  10/8 240 м
[средняя] 
+20.6  +19.4  93  +25  +25  комфорт             
01:53 22.08 Ю  11 км  гроза, дождь  10/2 210 м
[средняя] 
+21.1  +20.0  93  +26  +26  душно  1015.7        2.0   
02:53 22.08 ЮЗ  16 км  слабый дождь  2/0 3600 м
[средняя] 
+21.1  +19.4  90  +26  +26  душно  1016.4           
03:38 22.08 З  16 км  гроза, слабый дождь  10/8 1410 м
[средняя] 
+21.1  +19.4  90  +26  +26  душно             
03:53 22.08 З  14 км  слабый дождь  10/8 1410 м
[средняя] 
+21.1  +19.4  90  +26  +26  душно  1017.8  977.3         
04:03 22.08 З  11 км  гроза с дождем  10/8 1800 м
[средняя] 
+21.1  +20.0  93  +26  +26  душно    977.3         
04:18 22.08 ЮЗ  11 км  дождь  10/0 2100 м
[средняя] 
+20.6  +19.4  93  +25  +25  комфорт    976.9         
04:53 22.08 З  13 км  слабый дождь  8/0 3300 м
[средняя] 
+21.1  +20.0  93  +26  +26  душно  1017.2  976.9  +20.6  +30.0  6.9   
05:53 22.08 Ю  16 км  слабый дождь  5/0 3600 м
[средняя] 
+20.6  +19.4  93  +24  +24  комфорт  1014.6  974.3         
06:53 22.08 Ю  16 км  слабый дождь  2/0 3600 м
[средняя] 
+20.0  +18.9  93  +23  +23  комфорт  1014.2  974.0         
07:53 22.08 Ю  16 км    8/0 3300 м
[средняя] 
+20.0  +18.9  93  +23  +23  комфорт  1013.5  973.4      2.0   
08:53 22.08 СЗ  16 км    2/0 3000 м
[средняя] 
+20.0  +18.9  93  +23  +23  комфорт  1013.9  973.7         
09:53 22.08 СЗ  16 км    8/2 1950 м
[средняя] 
+20.0  +18.9  93  +23  +23  комфорт  1015.4  975.0         
10:42 22.08 нст  16 км    8/8 480 м  +20.0  +18.9  93  +24  +24  комфорт    975.3         
10:53 22.08   16 км    10/10 510 м  +20.0  +19.4  96  +23  +23  комфорт  1015.7  975.3  +20.0  +21.1  2.0   
11:05 22.08   16 км    10/10 510 м  +20.6  +19.4  93  +25  +25  комфорт    975.3         
11:53 22.08   10 км  дождь, дымка  10/10 1380 м  +20.6  +19.4  93  +25  +25  комфорт  1015.9  975.6         
12:53 22.08   16 км    8/0 3300 м
[средняя] 
+21.1  +19.4  90  +26  +27  душно  1015.9  975.3         
13:53 22.08 ЮВ  16 км    10/0 3000 м
[средняя] 
+21.7  +20.6  93  +27  +29  душно  1016.2  975.6      1.3   
14:53 22.08 С  16 км  слабый дождь  8/0 2400 м
[средняя] 
+23.3  +20.0  82  +30  +35  очень
душно 
1016.4  975.6         
15:48 22.08 ЮЗ  16 км  слабый дождь  10/8 330 м
[средняя] 
+23.0  +21.0  89  +31  +31  очень
душно 
  976.0         
15:53 22.08 ЮЗ  16 км  слабый дождь  10/8 330 м
[средняя] 
+23.3  +20.6  85  +31  +31  очень
душно 
1016.7  976.0         
16:08 22.08 ЮЗ  16 км    8/8 240 м
[средняя] 
+23.3  +20.6  85  +31  +33  очень
душно 
  976.0         
16:17 22.08 ЮЗ  16 км    10/2 330 м
[средняя] 
+23.3  +20.6  85  +31  +34  очень
душно 
  975.6         
16:28 22.08 нст  16 км    10/2 270 м
[средняя] 
+23.3  +20.6  85  +31  +34  очень
душно 
  975.3         
16:53 22.08 нст  16 км    10/8 210 м
[средняя] 
+23.9  +20.6  82  +30  +31  очень
душно 
1015.6  975.0  +20.0  +23.9  1.3   
17:44 22.08 С  16 км    8/8 420 м  +25.6  +20.6  74  +32  +34  очень
душно 
  974.3         
17:53 22.08 С  16 км    8/8 420 м  +26.1  +20.6  72  +33  +35  очень
душно 
1014.6  974.3         
18:01 22.08 СЗ  16 км    8/8 570 м  +25.6  +20.6  74  +32  +34  очень
душно 
  974.3         
18:17 22.08 С  16 км    8/8 930 м  +26.7  +21.1  71  +34  +36  очень
душно 
  974.0         
18:53 22.08 нст  16 км    5/5 720 м  +27.2  +20.6  67  +34  +41  очень
душно 
1014.3  974.0         
19:31 22.08 СЗ  3 км  сильный дождь, дымка  10/8 810 м
[средняя] 
+23.3  +21.1  87  +31  +32  очень
душно 
  974.3         
19:41 22.08   5 км  дождь  10/8 720 м
[средняя] 
+23.3  +20.6  85  +31  +32  очень
душно 
  974.3         
19:53 22.08 ЮВ  16 км    8/2 900 м
[средняя] 
+24.4  +20.6  79  +30  +35  очень
душно 
1014.6  974.0      2.8   

 

Местоположение метеостанции Rolla National Airport: широта 38.1319 долгота -91.7653 высота над уровнем моря 350 м.

В архиве по умолчанию представлена погода в Ролла / Виши за последние 1-2 суток. Обновление информации о фактической погоде в базе происходит ежечасно! Архивные данные за месяц целиком и за предыдущие месяцы Вы можете получить, выбрав интересующий диапазон дат из раскрывающегося списка и нажав кнопку "Ввод!".

Внимание! Архив погоды МЕТАР в базе сайта хранится не более 60 дней. Нет смысла пытаться выбрать более раннюю дату.

Внимание! Время в таблицах - всемирное. Для получения местного времени необходимо прибавить поправку, которая в Ролла / Виши равна -6 ч.

Ветер - указаны скорость ветра в м/с и направление, откуда дует ветер: С - северный, СВ - северо-восточный, В - восточный, ЮВ - юго-восточный, Ю - южный, ЮЗ - юго-западный, З - западный, СЗ - северо-западный.
Видимость - горизонтальная дальность видимости в метрах или километрах. При видимости от 1 до 10 км при отсутствии осадков обычно наблюдается дымка, при ухудшении видимости до 1 км и менее - туман. В сухую погоду видимость может ухудшаться дымом, пылью или мглою.
Атмосферные явления - указаны явления, наблюдавшиеся в указанный момент времени.
Облачность - указаны через наклонную черту верхняя и нижняя облачность в баллах и высота нижней границы облаков в метрах. Внимание: облачность, как и прочие метеорологические величины в США измеряются автоматическими метеостанциями. Указанные значения в баллах носят условный характер и показывают процент времени, в течение которого, в среднем, лазерный луч высотомера отражался от облаков обратно.
T - Температура воздуха - температура, измеренная на высоте 2 м над землей.
Td - Температура точки росы - температура, при понижении до которой содержащийся в воздухе водяной пар достигнет насыщения.
f - Относительная влажность воздуха - влажноcть воздуха, измеренная на высоте 2 м над землей.
Te - Эффективная температура - температура, которую ощущает одетый по сезону человек в тени. Характеристика душности погоды. При расчете учитывается влияние влажности воздуха и скорости ветра на теплоощущения человека.
Tes - Эффективная температура на солнце - температура, которую ощущает человек, с поправкой на солнечный нагрев. Характеристика знойности погоды. Зависит от высоты солнца над горизонтом, облачности и скорости ветра. Ночью, в пасмурную погоду, а также при ветре 12 м/с и более поправка равна нулю.
P - Атмосферное давление - приведенное к уровню моря атмосферное давление.
Po - Атмосферное давление - измеренное на уровне метеостанции атмосферное давление.
Tmin - Минимальная температура - минимум температуры воздуха на высоте 2 м над землей.
Tmax - Максимальная температура - максимум температуры воздуха на высоте 2 м над землей.
R - Количество осадков - Количество выпавших осадков за 3 или 6 часов, мм.
SD - Снежный покров - Высота снежного покрова, см.